This is the latest recevied weather packets stored in our database for station/object KH6DH-13. If no packets are shown the sender has not sent any weather packets the latest 10 day(s).
| Time | Temp. | Humidity | Pressure | Rain* | Wind** | Luminosity | Snow |
|---|---|---|---|---|---|---|---|
| 1777957082 | 25° C | - | - | 0 mm | 1.34 m/s, 35° | - | - |
| 1777956481 | 26.11° C | - | - | 0 mm | 1.34 m/s, 28° | - | - |
| 1777955879 | 26.11° C | - | - | 0 mm | 2.24 m/s, 20° | - | - |
| 1777955278 | 26.67° C | - | - | 0 mm | 1.79 m/s, 75° | - | - |
| 1777954677 | 26.67° C | - | - | 0 mm | 1.34 m/s, 34° | - | - |
| 1777954076 | 28.33° C | - | - | 0 mm | 1.34 m/s, 83° | - | - |
| 1777953475 | 28.89° C | - | - | 0 mm | 2.24 m/s, 103° | - | - |
| 1777952871 | 30.56° C | - | - | 0 mm | 1.34 m/s, 76° | - | - |
| 1777952266 | 32.78° C | - | - | 0 mm | 3.13 m/s, 53° | - | - |
| 1777951665 | 33.33° C | - | - | 0 mm | 1.34 m/s, 104° | - | - |
| 1777951064 | 32.22° C | - | - | 0 mm | 2.68 m/s, 52° | - | - |
| 1777950463 | 31.11° C | - | - | 0 mm | 2.68 m/s, 17° | - | - |
| 1777949862 | 31.11° C | - | - | 0 mm | 1.79 m/s, 23° | - | - |
| 1777949261 | 30.56° C | - | - | 0 mm | 2.68 m/s, 55° | - | - |
| 1777948658 | 30.56° C | - | - | 0 mm | 3.13 m/s, 75° | - | - |
| 1777948056 | 30.56° C | - | - | 0 mm | 2.68 m/s, 31° | - | - |
| 1777947455 | 30.56° C | - | - | 0 mm | 3.13 m/s, 25° | - | - |
| 1777946854 | 30° C | - | - | 0 mm | 2.24 m/s, 56° | - | - |
| 1777946253 | 29.44° C | - | - | 0 mm | 0.89 m/s, 104° | - | - |
| 1777945652 | 29.44° C | - | - | 0 mm | 1.79 m/s, 87° | - | - |
| 1777945051 | 29.44° C | - | - | 0 mm | 3.13 m/s, 297° | - | - |
| 1777944450 | 30° C | - | - | 0 mm | 1.79 m/s, 86° | - | - |
| 1777943849 | 30° C | - | - | 0 mm | 1.79 m/s, 8° | - | - |
| 1777943245 | 30.56° C | - | - | 0 mm | 2.68 m/s, 65° | - | - |
| 1777942644 | 30° C | - | - | 0 mm | 2.24 m/s, 27° | - | - |
* Rain latest hour (hover to see other rain measurements)
** Current wind speed in m/s (hover to see current wind gust speed)